Location: Arboyeti
(42.1122°N, 44.6017°E)
Time: 04:51:58
(UTC+00:00)

Cosmos 1992 Rocket - Pass Details

Date: 19 April 2021
Orbit: 759 x 765 km, 74.0° (Epoch: 09 May)

Event Time Altitude Azimuth Distance (km) Brightness Sun altitude
Rises 16:31:42 0° 344° (NNW) 3,229 7.9 -8.5°
Reaches altitude 10° 16:34:09 10° 350° (N) 2,300 7.0 -9.0°
Maximum altitude 16:39:15 52° 66° (ENE) 944 4.2 -9.8°
Enters shadow 16:44:11 11° 143° (SE) 2,247 5.9 -10.6°
